GW1450 Weather Reports


time (UTC)temp
C
wind
direction
speed
KPH
gust
KPH
rain 1hr
cm
rain 24hr
cm
rain mn
cm
humidity
%
barometer
mb
20260507224534 23 265 6.4 22.5 0.00 0.00 0.00 27 1015.7
20260507223032 22 281 9.7 25.7 0.00 0.00 0.00 29 1015.8
20260507221535 22 162 11.3 24.1 0.00 0.00 0.00 30 1015.9
20260507220037 22 118 9.7 30.6 0.00 0.00 0.00 30 1016.1
20260507214533 22 275 6.4 25.7 0.00 0.00 0.00 30 1016.3
20260507213036 22 175 8.0 25.7 0.00 0.00 0.00 32 1016.6
20260507210033 22 166 9.7 29.0 0.00 0.00 0.00 33 1016.7
20260507204534 22 158 9.7 20.9 0.00 0.00 0.00 33 1016.8
20260507201534 21 177 12.9 25.7 0.00 0.00 0.00 34 1017.2
20260507200033 21 131 11.3 22.5 0.00 0.00 0.00 34 1017.3
20260507194532 21 99 6.4 22.5 0.00 0.00 0.00 35 1017.4
20260507193036 20 135 8.0 20.9 0.00 0.00 0.00 37 1017.5
20260507191534 20 193 4.8 19.3 0.00 0.00 0.00 40 1017.7
20260507190034 18 170 9.7 19.3 0.00 0.00 0.00 44 1018.0
20260507184533 18 171 6.4 17.7 0.00 0.00 0.00 47 1018.3
20260507181530 17 181 9.7 20.9 0.00 0.00 0.00 49 1018.5
20260507180036 17 160 11.3 22.5 0.00 0.00 0.00 51 1018.5
20260507174534 17 162 8.0 17.7 0.00 0.00 0.00 52 1018.6
20260507173029 16 179 9.7 22.5 0.00 0.00 0.00 55 1018.8
20260507171538 16 177 11.3 20.9 0.00 0.00 0.00 56 1018.9
20260507170034 17 178 9.7 20.9 0.00 0.00 0.00 55 1018.8
20260507164533 16 289 4.8 16.1 0.00 0.00 0.00 57 1018.8
20260507163147 16 302 6.4 16.1 0.00 0.00 0.00 60 1018.9
20260507161539 15 262 6.4 14.5 0.00 0.00 0.00 63 1019.1
20260507160035 14 251 8.0 14.5 0.00 0.00 0.00 65 1019.3
20260507154533 13 231 8.0 14.5 0.00 0.00 0.00 68 1019.6
20260507153033 15 137 3.2 9.7 0.00 0.00 0.00 63 1019.7
20260507151534 14 81 0.0 4.8 0.00 0.00 0.00 66 1019.8
20260507150047 13 157 0.0 0.0 0.00 0.00 0.00 69 1019.8
20260507144534 13 179 0.0 3.2 0.00 0.00 0.00 73 1019.7
20260507143035 12 202 0.0 0.0 0.00 0.00 0.00 78 1019.7
20260507140035 9 202 0.0 4.8 0.00 0.00 0.00 86 1019.3
20260507133034 8 202 1.6 6.4 0.00 0.00 0.00 88 1019.1
20260507131535 8 202 1.6 8.0 0.00 0.00 0.00 89 1019.1
20260507130032 7 202 1.6 6.4 0.00 0.00 0.00 89 1019.0
20260507124531 7 202 0.0 4.8 0.00 0.00 0.00 88 1019.0
20260507123142 8 202 0.0 4.8 0.00 0.00 0.00 88 1018.8
20260507121536 8 202 0.0 0.0 0.00 0.00 0.00 86 1018.7
20260507120036 8 183 0.0 4.8 0.00 0.00 0.00 87 1018.7
20260507114534 8 142 0.0 8.0 0.00 0.00 0.00 85 1018.6
20260507111535 10 88 0.0 3.2 0.00 0.00 0.00 80 1018.4
20260507110035 11 87 1.6 9.7 0.00 0.00 0.00 76 1018.3
20260507104531 12 177 0.0 9.7 0.00 0.00 0.00 71 1018.2
20260507100107 13 305 8.0 17.7 0.00 0.00 0.00 71 1018.0
20260507094531 13 311 4.8 19.3 0.00 0.00 0.00 69 1018.1
20260507093036 15 315 1.6 11.3 0.00 0.00 0.00 61 1018.1
20260507091530 16 275 9.7 17.7 0.00 0.00 0.00 54 1018.1
20260507084535 15 252 11.3 22.5 0.00 0.00 0.00 61 1018.3
20260507081608 12 196 0.0 6.4 0.00 0.00 0.00 79 1018.4
20260507080035 12 163 0.0 4.8 0.00 0.00 0.00 78 1018.4
20260507074533 13 224 0.0 1.6 0.00 0.00 0.00 75 1018.4
20260507073037 14 67 1.6 9.7 0.00 0.00 0.00 72 1018.2
20260507071537 14 129 0.0 6.4 0.00 0.00 0.00 70 1018.2
20260507070035 14 178 0.0 1.6 0.00 0.00 0.00 68 1018.3
20260507061535 16 261 8.0 16.1 0.00 0.00 0.00 61 1018.5
20260507060029 16 254 9.7 17.7 0.00 0.00 0.00 59 1018.5
20260507054642 16 272 12.9 25.7 0.00 0.00 0.00 58 1018.6
20260507051530 17 272 11.3 24.1 0.00 0.00 0.00 53 1018.7
20260507050036 17 273 4.8 17.7 0.00 0.00 0.00 51 1018.9
20260507044530 17 255 3.2 19.3 0.00 0.00 0.00 51 1018.9
20260507043035 17 333 1.6 16.1 0.00 0.00 0.00 48 1018.8
20260507041535 17 228 1.6 14.5 0.00 0.00 0.00 48 1018.6
20260507040045 18 244 1.6 11.3 0.00 0.00 0.00 47 1018.5
20260507034537 18 265 8.0 16.1 0.00 0.00 0.00 46 1018.5
20260507033108 19 275 9.7 20.9 0.00 0.00 0.00 45 1018.4
20260507031535 19 264 12.9 29.0 0.00 0.00 0.00 45 1018.3
20260507030107 20 253 14.5 30.6 0.00 0.00 0.00 45 1018.2
20260507024607 20 255 16.1 30.6 0.00 0.00 0.00 45 1018.1
20260507023036 20 254 12.9 29.0 0.00 0.00 0.00 44 1018.0
20260507021531 20 252 12.9 27.4 0.00 0.00 0.00 44 1017.9
20260507020036 20 254 17.7 33.8 0.00 0.00 0.00 43 1017.7
20260507014533 20 253 16.1 35.4 0.00 0.00 0.00 44 1017.6
20260507013032 21 242 12.9 37.0 0.00 0.00 0.00 43 1017.5
20260507011535 21 246 12.9 27.4 0.00 0.00 0.00 42 1017.4
20260507010036 21 246 12.9 35.4 0.00 0.00 0.00 41 1017.4
20260507004535 21 248 11.3 29.0 0.00 0.00 0.00 40 1017.3
20260507003036 22 247 12.9 27.4 0.00 0.00 0.00 40 1017.2
20260507001531 22 257 9.7 32.2 0.00 0.00 0.00 41 1017.1
20260506234536 22 269 9.7 30.6 0.00 0.00 0.00 41 1016.9
20260506233036 22 293 11.3 27.4 0.00 0.00 0.00 41 1016.9
20260506231535 23 284 9.7 24.1 0.00 0.00 0.00 41 1016.9
20260506230033 23 258 16.1 33.8 0.00 0.00 0.00 40 1016.9